Location: Elbart
(49.6135°N, 11.9134°E)
Time: 04:04:57
(UTC+00:00)

ATLAS CENTAUR R/B - Pass Details

Date: 09 April 2020
Orbit: 471 x 675 km, 64.7° (Epoch: 01 June)

Event Time Altitude Azimuth Distance (km) Brightness Sun altitude
Rises 21:55:26 0° 310° (NW) 2,643 5.7 -29.9°
Reaches altitude 10° 21:58:01 10° 294° (WNW) 1,718 4.3 -30.1°
Enters shadow 21:58:37 13° 288° (WNW) 1,533 4.0 -30.1°
